CFG6HC EDLW-LEPA

Flight info

Callsign CFG6HC
Flight time N/A
Altitude 35000
Route BAMSU2U BAMSU M170 NVO Y841 KENUM DCT GESLO DCT LIMGO DCT SUTAL DCT GTQ DCT POGOL DCT LASAT DCT MOROK DCT GILIR DCT GEVEA DCT INCUS DCT BALSI DCT RETNO DCT TUPOX DCT MTG DCT DIVKO DCT VATIR N852 VERSO DCT LUNIK
Aircraft A321/M-SDE2E3FGHIJ1RWXYZ/LB1

Departure

Time 2026-05-04 16:31
Airport Dortmund Airport (EDLW)

Arrival

Time N/A
Airport Palma de Mallorca Airport (LEPA)
Time Latitude Longitude Altitude Speed Heading
2026-05-04 15:58 51.51602 7.61343 434 ft 0 kts 332°
2026-05-04 16:26 51.51618 7.61330 416 ft 4 kts 333°
2026-05-04 16:27 51.51680 7.61351 426 ft 8 kts 49°
2026-05-04 16:28 51.51893 7.61936 411 ft 24 kts 60°
2026-05-04 16:28 51.52123 7.62597 409 ft 12 kts 60°
2026-05-04 16:29 51.52293 7.62742 413 ft 15 kts 332°
2026-05-04 16:30 51.52326 7.62628 413 ft 0 kts 240°
2026-05-04 16:31 51.52260 7.62440 412 ft 59 kts 240°
2026-05-04 16:31 51.50917 7.58516 1661 ft 154 kts 237°
2026-05-04 16:32 51.49039 7.53283 2810 ft 209 kts 238°
2026-05-04 16:33 51.47400 7.48837 3266 ft 251 kts 234°
2026-05-04 16:33 51.44668 7.45428 4639 ft 257 kts 200°
2026-05-04 16:34 51.41270 7.43485 6125 ft 262 kts 199°
2026-05-04 16:34 51.39533 7.42514 6812 ft 266 kts 199°
2026-05-04 16:35 51.34215 7.39524 8905 ft 275 kts 199°
2026-05-04 16:35 51.28484 7.37386 10322 ft 307 kts 188°
2026-05-04 16:36 51.26287 7.37133 10450 ft 327 kts 176°
2026-05-04 16:36 51.21551 7.38019 11172 ft 351 kts 173°
2026-05-04 16:37 51.16673 7.39008 12398 ft 356 kts 173°
2026-05-04 16:37 51.14244 7.39494 13006 ft 359 kts 173°
2026-05-04 16:37 51.09227 7.40481 14163 ft 365 kts 173°
2026-05-04 16:38 51.04144 7.41500 15196 ft 371 kts 173°
2026-05-04 16:39 50.96378 7.43103 16715 ft 379 kts 173°
2026-05-04 16:39 50.91103 7.44223 17705 ft 384 kts 173°
2026-05-04 16:40 50.85766 7.45380 18610 ft 390 kts 173°
2026-05-04 16:40 50.80359 7.46572 19463 ft 395 kts 173°
2026-05-04 16:41 50.74887 7.47796 20304 ft 399 kts 173°
2026-05-04 16:41 50.66583 7.49697 21528 ft 405 kts 173°
2026-05-04 16:42 50.58188 7.51730 22763 ft 411 kts 173°
2026-05-04 16:43 50.52505 7.53152 23550 ft 416 kts 173°
2026-05-04 16:43 50.46759 7.54600 24197 ft 420 kts 173°
2026-05-04 16:43 50.43868 7.55333 24517 ft 422 kts 173°
2026-05-04 16:44 50.32192 7.58350 25769 ft 428 kts 173°
2026-05-04 16:45 50.26292 7.59904 26353 ft 432 kts 173°
2026-05-04 16:46 50.17351 7.62273 27217 ft 437 kts 174°
2026-05-04 16:46 50.11350 7.63911 27828 ft 439 kts 173°
2026-05-04 16:47 50.05311 7.65584 28400 ft 441 kts 173°
2026-05-04 16:47 49.99288 7.67269 29179 ft 438 kts 173°
2026-05-04 16:48 49.90332 7.69822 30333 ft 433 kts 173°
2026-05-04 16:48 49.88372 7.70387 30573 ft 431 kts 173°
2026-05-04 16:49 49.82490 7.72069 31199 ft 429 kts 173°
2026-05-04 16:49 49.76624 7.73729 31793 ft 428 kts 173°
2026-05-04 16:50 49.70763 7.74536 32372 ft 419 kts 192°